Weather History for Wheaton NDB, MN

Change the Weather History Date:

Wednesday, October 10, 2012

  Actual Average Record
Temperature  
Mean Temperature 38 °F -  
Max Temperature 51 °F 63 °F 88 °F (1955)
Min Temperature 26 °F 38 °F 22 °F (1985)
Degree Days  
Heating Degree Days 26    
Moisture  
Dew Point 27 °F    
Average Humidity 62    
Maximum Humidity 100    
Minimum Humidity 35    
Precipitation  
Precipitation 0.00 in - - ()
Sea Level Pressure  
Sea Level Pressure 29.98 in    
Wind  
Wind Speed 6 mph (SW)    
Max Wind Speed 13 mph    
Max Gust Speed 16 mph    
Visibility 10 miles    
Events Rain    
Averages and records for this station are not official NWS values.
T = Trace of Precipitation, MM = Missing Value Source: NWS Daily Summary

Daily Weather History Graph

Daily Weather History Graph

Search for Another Location

Airport:

Trip Planner

Search our weather history database for the weather conditions in past years. The results will help you decide how hot, cold, wet, or windy it might be!

Date:

Astronomy

Oct. 10, 2012 Rise Set
Actual Time 7:36 AM CDT 6:48 PM CDT
Civil Twilight 7:06 AM CDT 7:18 PM CDT
Nautical Twilight 6:32 AM CDT 7:52 PM CDT
Astronomical Twilight 5:57 AM CDT 8:27 PM CDT
Moon 1:58 AM CDT (10/10) 4:05 PM CDT (10/10)
Length of Visible Light 12h 11m
Length of Day
11h 11m
Waning Crescent, 27% of the Moon is Illuminated
Oct 10
Waning Crescent
Oct 15
New
Oct 21
First Quarter
Oct 29
Full
Nov 6
Last Quarter

Hourly Weather History & Observations

Time (CDT) Temp. Windchill Dew Point Humidity Pressure Visibility Wind Dir Wind Speed Gust Speed Precip Events Conditions
12:15 AM 33.8 °F 27.7 °F 28.4 °F 81% 30.06 in 10.0 mi West 6.9 mph - N/A   Scattered Clouds
12:35 AM 33.8 °F 27.7 °F 28.4 °F 81% 30.06 in 10.0 mi West 6.9 mph - N/A   Clear
12:55 AM 33.8 °F 28.6 °F 28.4 °F 81% 30.06 in 10.0 mi West 5.8 mph - N/A   Clear
1:15 AM 32.0 °F 25.6 °F 28.4 °F 87% 30.06 in 10.0 mi West 6.9 mph - N/A   Scattered Clouds
1:35 AM 33.8 °F 27.0 °F 28.4 °F 81% 30.06 in 10.0 mi West 8.1 mph - N/A   Scattered Clouds
1:55 AM 33.8 °F 26.4 °F 28.4 °F 81% 30.07 in 10.0 mi West 9.2 mph - N/A   Scattered Clouds
2:15 AM 32.0 °F 26.4 °F 28.4 °F 87% 30.06 in 10.0 mi West 5.8 mph - N/A   Clear
2:35 AM 30.2 °F 25.4 °F 26.6 °F 86% 30.06 in 10.0 mi West 4.6 mph - N/A   Clear
2:55 AM 30.2 °F 24.3 °F 26.6 °F 86% 30.07 in 10.0 mi West 5.8 mph - N/A   Scattered Clouds
3:15 AM 32.0 °F 27.5 °F 28.4 °F 87% 30.06 in 10.0 mi West 4.6 mph - N/A   Overcast
3:35 AM 30.2 °F 24.3 °F 28.4 °F 93% 30.06 in 10.0 mi WSW 5.8 mph - N/A   Overcast
3:55 AM 30.2 °F 24.3 °F 28.4 °F 93% 30.06 in 10.0 mi WSW 5.8 mph - N/A   Overcast
4:15 AM 28.4 °F 23.3 °F 26.6 °F 93% 30.07 in 10.0 mi SW 4.6 mph - N/A   Scattered Clouds
4:35 AM 28.4 °F 23.3 °F 26.6 °F 93% 30.07 in 10.0 mi WSW 4.6 mph - N/A   Clear
4:55 AM 28.4 °F 22.2 °F 26.6 °F 93% 30.07 in 10.0 mi SW 5.8 mph - N/A   Clear
5:15 AM 28.4 °F 23.3 °F 26.6 °F 93% 30.07 in 10.0 mi SW 4.6 mph - N/A   Clear
5:35 AM 28.4 °F 22.2 °F 26.6 °F 93% 30.07 in 10.0 mi WSW 5.8 mph - N/A   Clear
5:55 AM 30.2 °F 24.3 °F 28.4 °F 93% 30.08 in 10.0 mi WSW 5.8 mph - N/A   Clear
6:15 AM 28.4 °F 23.3 °F 26.6 °F 93% 30.08 in 10.0 mi WSW 4.6 mph - N/A   Clear
6:35 AM 28.4 °F 23.3 °F 26.6 °F 93% 30.08 in 10.0 mi WSW 4.6 mph - N/A   Clear
6:55 AM 28.4 °F 22.2 °F 26.6 °F 93% 30.08 in 10.0 mi SW 5.8 mph - N/A   Scattered Clouds
7:35 AM 26.6 °F 19.1 °F 24.8 °F 93% 30.08 in 10.0 mi South 6.9 mph - N/A   Clear
7:55 AM 26.6 °F 19.1 °F 24.8 °F 93% 30.08 in 10.0 mi South 6.9 mph - N/A   Clear
8:15 AM 26.6 °F 20.0 °F 26.6 °F 100% 30.08 in 10.0 mi SSW 5.8 mph - N/A   Clear
8:35 AM 28.4 °F 24.6 °F 26.6 °F 93% 30.07 in 10.0 mi SSW 3.5 mph - N/A   Clear
8:55 AM 33.8 °F 28.6 °F 30.2 °F 87% 30.07 in 10.0 mi SW 5.8 mph - N/A   Clear
9:15 AM 35.6 °F 29.2 °F 30.2 °F 81% 30.07 in 10.0 mi SW 8.1 mph - N/A   Clear
9:35 AM 37.4 °F 31.4 °F 30.2 °F 75% 30.08 in 10.0 mi WSW 8.1 mph - N/A   Clear
9:55 AM 39.2 °F 34.2 °F 30.2 °F 70% 30.08 in 10.0 mi West 6.9 mph - N/A   Clear
10:15 AM 41.0 °F 36.4 °F 30.2 °F 65% 30.08 in 10.0 mi West 6.9 mph - N/A   Clear
10:35 AM 42.8 °F 38.0 °F 30.2 °F 61% 30.08 in 10.0 mi West 8.1 mph - N/A   Clear
10:55 AM 42.8 °F 38.6 °F 30.2 °F 61% 30.08 in 10.0 mi WSW 6.9 mph - N/A   Clear
11:15 AM 44.6 °F 40.7 °F 30.2 °F 57% 30.07 in 10.0 mi WSW 6.9 mph - N/A   Clear
11:35 AM 46.4 °F 43.5 °F 30.2 °F 53% 30.07 in 10.0 mi SW 5.8 mph - N/A   Clear
11:55 AM 46.4 °F 42.9 °F 28.4 °F 50% 30.07 in 10.0 mi West 6.9 mph - N/A   Clear
12:01 PM 46.4 °F 43.5 °F 28.4 °F 50% 30.06 in 10.0 mi SW 5.8 mph - N/A   Clear
12:21 PM 46.4 °F 43.5 °F 28.4 °F 50% 30.06 in 10.0 mi SW 5.8 mph - N/A   Clear
12:41 PM 48.2 °F - 26.6 °F 43% 30.06 in 10.0 mi West 5.8 mph - N/A   Clear
1:21 PM 50.0 °F - 26.6 °F 40% 30.03 in 10.0 mi SW 4.6 mph - N/A   Clear
1:41 PM 51.8 °F - 24.8 °F 35% 30.02 in 10.0 mi SSW 11.5 mph 16.1 mph N/A   Clear
2:01 PM 51.8 °F - 24.8 °F 35% 30.02 in 10.0 mi SSW 11.5 mph - N/A   Clear
2:41 PM 51.8 °F - 24.8 °F 35% 30.00 in 10.0 mi SSW 8.1 mph - N/A   Clear
3:01 PM 51.8 °F - 24.8 °F 35% 29.99 in 10.0 mi SW 1.2 mph - N/A   Clear
3:35 PM 51.8 °F - 24.8 °F 35% 29.96 in 10.0 mi Calm Calm - N/A   Scattered Clouds
3:55 PM 51.8 °F - 24.8 °F 35% 29.95 in 10.0 mi Calm Calm - N/A   Clear
4:15 PM 51.8 °F - 24.8 °F 35% 29.94 in 10.0 mi Calm Calm - N/A   Scattered Clouds
4:35 PM 51.8 °F - 24.8 °F 35% 29.93 in 10.0 mi SE 3.5 mph - N/A   Clear
4:55 PM 51.8 °F - 24.8 °F 35% 29.91 in 10.0 mi ESE 5.8 mph - N/A   Clear
5:15 PM 51.8 °F - 24.8 °F 35% 29.89 in 10.0 mi ESE 8.1 mph - N/A   Clear
5:35 PM 51.8 °F - 24.8 °F 35% 29.88 in 10.0 mi ESE 9.2 mph - N/A   Clear
5:55 PM 51.8 °F - 24.8 °F 35% 29.87 in 10.0 mi ESE 10.4 mph - N/A   Clear
6:15 PM 51.8 °F - 24.8 °F 35% 29.86 in 10.0 mi ESE 11.5 mph - N/A   Clear
6:35 PM 50.0 °F - 24.8 °F 37% 29.85 in 10.0 mi ESE 9.2 mph - N/A   Clear
6:55 PM 48.2 °F - 24.8 °F 40% 29.84 in 10.0 mi ESE 10.4 mph - N/A   Clear
7:15 PM 46.4 °F 41.5 °F 24.8 °F 43% 29.83 in 10.0 mi ESE 10.4 mph - N/A   Clear
7:35 PM 46.4 °F 41.9 °F 24.8 °F 43% 29.82 in 10.0 mi ESE 9.2 mph - N/A   Clear
7:55 PM 46.4 °F 40.7 °F 24.8 °F 43% 29.81 in 10.0 mi SE 12.7 mph - N/A   Clear
8:15 PM 46.4 °F 41.5 °F 24.8 °F 43% 29.80 in 10.0 mi ESE 10.4 mph - N/A   Scattered Clouds
8:35 PM 48.2 °F - 26.6 °F 43% 29.80 in 10.0 mi ESE 10.4 mph - N/A   Mostly Cloudy
8:55 PM 48.2 °F - 26.6 °F 43% 29.79 in 10.0 mi ESE 10.4 mph - N/A   Mostly Cloudy
9:15 PM 48.2 °F - 26.6 °F 43% 29.80 in 10.0 mi ESE 6.9 mph - N/A   Mostly Cloudy
9:35 PM 48.2 °F - 26.6 °F 43% 29.80 in 10.0 mi ESE 5.8 mph - N/A   Overcast
9:55 PM 48.2 °F - 26.6 °F 43% 29.83 in 10.0 mi NNW 5.8 mph - N/A   Mostly Cloudy
10:15 PM 48.2 °F - 26.6 °F 43% 29.81 in 10.0 mi NE 6.9 mph - N/A   Scattered Clouds
10:35 PM 46.4 °F 44.3 °F 26.6 °F 46% 29.82 in 10.0 mi NNE 4.6 mph - N/A   Scattered Clouds
10:55 PM 46.4 °F - 26.6 °F 46% 29.84 in 10.0 mi Calm Calm - N/A   Scattered Clouds
11:15 PM 46.4 °F 44.3 °F 26.6 °F 46% 29.83 in 10.0 mi NNE 4.6 mph - N/A   Scattered Clouds
11:35 PM 46.4 °F 42.9 °F 28.4 °F 50% 29.83 in 10.0 mi North 6.9 mph - N/A Rain Light Rain
11:55 PM 44.6 °F 42.2 °F 30.2 °F 57% 29.84 in 10.0 mi NNW 4.6 mph - N/A Rain Light Rain